Year,Month,Day,Hour,Minute,Value (Times are PST for temperature in C)
2012,08,17,00,00,22.40
2012,08,17,00,01,22.30
2012,08,17,00,02,22.30
2012,08,17,00,03,22.30
2012,08,17,00,04,22.30
2012,08,17,00,05,22.30
2012,08,17,00,06,22.30
2012,08,17,00,07,22.30
2012,08,17,00,08,22.30
2012,08,17,00,09,22.30
2012,08,17,00,10,22.30
2012,08,17,00,11,22.30
2012,08,17,00,12,22.30
2012,08,17,00,13,22.30
2012,08,17,00,14,22.30
2012,08,17,00,15,22.30
2012,08,17,00,16,22.30
2012,08,17,00,17,22.30
2012,08,17,00,18,22.30
2012,08,17,00,19,22.30
2012,08,17,00,20,22.30
2012,08,17,00,21,22.30
2012,08,17,00,22,22.30
2012,08,17,00,23,22.40
2012,08,17,00,24,22.40
2012,08,17,00,25,22.40
2012,08,17,00,26,22.40
2012,08,17,00,27,22.50
2012,08,17,00,28,22.50
2012,08,17,00,29,22.50
2012,08,17,00,30,22.60
2012,08,17,00,31,22.60
2012,08,17,00,32,22.60
2012,08,17,00,33,22.60
2012,08,17,00,34,22.70
2012,08,17,00,35,22.70
2012,08,17,00,36,22.70
2012,08,17,00,37,22.70
2012,08,17,00,38,22.80
2012,08,17,00,39,22.80
2012,08,17,00,40,22.80
2012,08,17,00,41,22.80
2012,08,17,00,42,22.80
2012,08,17,00,43,22.90
2012,08,17,00,44,22.90
2012,08,17,00,45,22.90
2012,08,17,00,46,23.00
2012,08,17,00,47,23.00
2012,08,17,00,48,23.00
2012,08,17,00,49,23.00
2012,08,17,00,50,23.00
2012,08,17,00,51,23.00
2012,08,17,00,52,22.90
2012,08,17,00,53,22.90
2012,08,17,00,54,22.90
2012,08,17,00,55,22.90
2012,08,17,00,56,22.90
2012,08,17,00,57,22.80
2012,08,17,00,58,22.80
2012,08,17,00,59,22.70
2012,08,17,01,00,22.70
2012,08,17,01,01,22.70
2012,08,17,01,02,22.60
2012,08,17,01,03,22.60
2012,08,17,01,04,22.50
2012,08,17,01,05,22.50
2012,08,17,01,06,22.40
2012,08,17,01,07,22.30
2012,08,17,01,08,22.30
2012,08,17,01,09,22.20
2012,08,17,01,10,22.20
2012,08,17,01,11,22.10
2012,08,17,01,12,22.10
2012,08,17,01,13,22.00
2012,08,17,01,14,22.00
2012,08,17,01,15,21.90
2012,08,17,01,16,21.90
2012,08,17,01,17,21.80
2012,08,17,01,18,21.80
2012,08,17,01,19,21.70
2012,08,17,01,20,21.70
2012,08,17,01,21,21.70
2012,08,17,01,22,21.60
2012,08,17,01,23,21.60
2012,08,17,01,24,21.60
2012,08,17,01,25,21.50
2012,08,17,01,26,21.50
2012,08,17,01,27,21.40
2012,08,17,01,28,21.40
2012,08,17,01,29,21.30
2012,08,17,01,30,21.20
2012,08,17,01,31,21.10
2012,08,17,01,32,21.10
2012,08,17,01,33,21.00
2012,08,17,01,34,20.90
2012,08,17,01,35,20.90
2012,08,17,01,36,20.80
2012,08,17,01,37,20.70
2012,08,17,01,38,20.70
2012,08,17,01,39,20.60
2012,08,17,01,40,20.60
2012,08,17,01,41,20.50
2012,08,17,01,42,20.50
2012,08,17,01,43,20.40
2012,08,17,01,44,20.30
2012,08,17,01,45,20.30
2012,08,17,01,46,20.20
2012,08,17,01,47,20.10
2012,08,17,01,48,20.10
2012,08,17,01,49,20.00
2012,08,17,01,50,20.00
2012,08,17,01,51,19.90
2012,08,17,01,52,19.90
2012,08,17,01,53,19.80
2012,08,17,01,54,19.80
2012,08,17,01,55,19.80
2012,08,17,01,56,19.70
2012,08,17,01,57,19.70
2012,08,17,01,58,19.70
2012,08,17,01,59,19.70
2012,08,17,02,00,19.70
2012,08,17,02,01,19.60
2012,08,17,02,02,19.60
2012,08,17,02,03,19.60
2012,08,17,02,04,19.60
2012,08,17,02,05,19.60
2012,08,17,02,06,19.60
2012,08,17,02,07,19.60
2012,08,17,02,08,19.50
2012,08,17,02,09,19.50
2012,08,17,02,10,19.50
2012,08,17,02,11,19.50
2012,08,17,02,12,19.50
2012,08,17,02,13,19.50
2012,08,17,02,14,19.60
2012,08,17,02,15,19.60
2012,08,17,02,16,19.60
2012,08,17,02,17,19.60
2012,08,17,02,18,19.60
2012,08,17,02,19,19.60
2012,08,17,02,20,19.60
2012,08,17,02,21,19.60
2012,08,17,02,22,19.60
2012,08,17,02,23,19.60
2012,08,17,02,24,19.60
2012,08,17,02,25,19.60
2012,08,17,02,26,19.50
2012,08,17,02,27,19.50
2012,08,17,02,28,19.40
2012,08,17,02,29,19.40
2012,08,17,02,30,19.30
2012,08,17,02,31,19.30
2012,08,17,02,32,19.20
2012,08,17,02,33,19.20
2012,08,17,02,34,19.20
2012,08,17,02,35,19.20
2012,08,17,02,36,19.10
2012,08,17,02,37,19.10
2012,08,17,02,38,19.10
2012,08,17,02,39,19.10
2012,08,17,02,40,19.10
2012,08,17,02,41,19.10
2012,08,17,02,42,19.10
2012,08,17,02,43,19.10
2012,08,17,02,44,19.10
2012,08,17,02,45,19.10
2012,08,17,02,46,19.10
2012,08,17,02,47,19.10
2012,08,17,02,48,19.20
2012,08,17,02,49,19.20
2012,08,17,02,50,19.20
2012,08,17,02,51,19.20
2012,08,17,02,52,19.20
2012,08,17,02,53,19.20
2012,08,17,02,54,19.20
2012,08,17,02,55,19.20
2012,08,17,02,56,19.20
2012,08,17,02,57,19.20
2012,08,17,02,58,19.20
2012,08,17,02,59,19.20
2012,08,17,03,00,19.20
2012,08,17,03,01,19.20
2012,08,17,03,02,19.20
2012,08,17,03,03,19.20
2012,08,17,03,04,19.20
2012,08,17,03,05,19.20
2012,08,17,03,06,19.20
2012,08,17,03,07,19.10
2012,08,17,03,08,19.10
2012,08,17,03,09,19.10
2012,08,17,03,10,19.10
2012,08,17,03,11,19.10
2012,08,17,03,12,19.10
2012,08,17,03,13,19.10
2012,08,17,03,14,19.10
2012,08,17,03,15,19.10
2012,08,17,03,16,19.10
2012,08,17,03,17,19.10
2012,08,17,03,18,19.10
2012,08,17,03,19,19.10
2012,08,17,03,20,19.10
2012,08,17,03,21,19.10
2012,08,17,03,22,19.10
2012,08,17,03,23,19.10
2012,08,17,03,24,19.10
2012,08,17,03,25,19.10
2012,08,17,03,26,19.10
2012,08,17,03,27,19.10
2012,08,17,03,28,19.00
2012,08,17,03,29,19.00
2012,08,17,03,30,19.00
2012,08,17,03,31,19.10
2012,08,17,03,32,19.10
2012,08,17,03,33,19.10
2012,08,17,03,34,19.10
2012,08,17,03,35,19.10
2012,08,17,03,36,19.10
2012,08,17,03,37,19.10
2012,08,17,03,38,19.10
2012,08,17,03,39,19.00
2012,08,17,03,40,19.00
2012,08,17,03,41,19.00
2012,08,17,03,42,19.00
2012,08,17,03,43,19.00
2012,08,17,03,44,19.00
2012,08,17,03,45,19.00
2012,08,17,03,46,19.00
2012,08,17,03,47,19.00
2012,08,17,03,48,18.90
2012,08,17,03,49,18.90
2012,08,17,03,50,18.90
2012,08,17,03,51,18.90
2012,08,17,03,52,18.90
2012,08,17,03,53,18.80
2012,08,17,03,54,18.80
2012,08,17,03,55,18.80
2012,08,17,03,56,18.70
2012,08,17,03,57,18.70
2012,08,17,03,58,18.70
2012,08,17,03,59,18.60
2012,08,17,04,00,18.60
2012,08,17,04,01,18.60
2012,08,17,04,02,18.60
2012,08,17,04,03,18.60
2012,08,17,04,04,18.50
2012,08,17,04,05,18.50
2012,08,17,04,06,18.50
2012,08,17,04,07,18.50
2012,08,17,04,08,18.40
2012,08,17,04,09,18.40
2012,08,17,04,10,18.40
2012,08,17,04,11,18.40
2012,08,17,04,12,18.40
2012,08,17,04,13,18.40
2012,08,17,04,14,18.40
2012,08,17,04,15,18.40
2012,08,17,04,16,18.40
2012,08,17,04,17,18.30
2012,08,17,04,18,18.30
2012,08,17,04,19,18.30
2012,08,17,04,20,18.30
2012,08,17,04,21,18.30
2012,08,17,04,22,18.30
2012,08,17,04,23,18.20
2012,08,17,04,24,18.20
2012,08,17,04,25,18.20
2012,08,17,04,26,18.20
2012,08,17,04,27,18.20
2012,08,17,04,28,18.10
2012,08,17,04,29,18.10
2012,08,17,04,30,18.10
2012,08,17,04,31,18.10
2012,08,17,04,32,18.10
2012,08,17,04,33,18.10
2012,08,17,04,34,18.10
2012,08,17,04,35,18.10
2012,08,17,04,36,18.10
2012,08,17,04,37,18.10
2012,08,17,04,38,18.10
2012,08,17,04,39,18.20
2012,08,17,04,40,18.20
2012,08,17,04,41,18.30
2012,08,17,04,42,18.30
2012,08,17,04,43,18.30
2012,08,17,04,44,18.40
2012,08,17,04,45,18.40
2012,08,17,04,46,18.40
2012,08,17,04,47,18.50
2012,08,17,04,48,18.50
2012,08,17,04,49,18.50
2012,08,17,04,50,18.50
2012,08,17,04,51,18.60
2012,08,17,04,52,18.60
2012,08,17,04,53,18.60
2012,08,17,04,54,18.60
2012,08,17,04,55,18.70
2012,08,17,04,56,18.70
2012,08,17,04,57,18.70
2012,08,17,04,58,18.70
2012,08,17,04,59,18.80
2012,08,17,05,00,18.80
2012,08,17,05,01,18.80
2012,08,17,05,02,18.80
2012,08,17,05,03,18.80
2012,08,17,05,04,18.80
2012,08,17,05,05,18.90
2012,08,17,05,06,18.90
2012,08,17,05,07,18.90
2012,08,17,05,08,18.90
2012,08,17,05,09,18.90
2012,08,17,05,10,18.90
2012,08,17,05,11,18.90
2012,08,17,05,12,18.90
2012,08,17,05,13,18.90
2012,08,17,05,14,18.90
2012,08,17,05,15,18.90
2012,08,17,05,16,18.90
2012,08,17,05,17,18.90
2012,08,17,05,18,18.90
2012,08,17,05,19,18.90
2012,08,17,05,20,18.90
2012,08,17,05,21,18.90
2012,08,17,05,22,18.90
2012,08,17,05,23,18.90
2012,08,17,05,24,18.90
2012,08,17,05,25,18.90
2012,08,17,05,26,18.90
2012,08,17,05,27,18.90
2012,08,17,05,28,18.90
2012,08,17,05,29,18.90
2012,08,17,05,30,18.90
2012,08,17,05,31,18.80
2012,08,17,05,32,18.80
2012,08,17,05,33,18.70
2012,08,17,05,34,18.60
2012,08,17,05,35,18.50
2012,08,17,05,36,18.40
2012,08,17,05,37,18.30
2012,08,17,05,38,18.20
2012,08,17,05,39,18.10
2012,08,17,05,40,18.10
2012,08,17,05,41,18.00
2012,08,17,05,42,18.00
2012,08,17,05,43,17.90
2012,08,17,05,44,17.90
2012,08,17,05,45,17.90
2012,08,17,05,46,17.90
2012,08,17,05,47,17.80
2012,08,17,05,48,17.80
2012,08,17,05,49,17.80
2012,08,17,05,50,17.80
2012,08,17,05,51,17.80
2012,08,17,05,52,17.70
2012,08,17,05,53,17.70
2012,08,17,05,54,17.70
2012,08,17,05,55,17.70
2012,08,17,05,56,17.70
2012,08,17,05,57,17.70
2012,08,17,05,58,17.60
2012,08,17,05,59,17.60
2012,08,17,06,00,17.60
2012,08,17,06,01,17.60
2012,08,17,06,02,17.60
2012,08,17,06,03,17.60
2012,08,17,06,04,17.60
2012,08,17,06,05,17.50
2012,08,17,06,06,17.50
2012,08,17,06,07,17.50
2012,08,17,06,08,17.50
2012,08,17,06,09,17.50
2012,08,17,06,10,17.40
2012,08,17,06,11,17.40
2012,08,17,06,12,17.40
2012,08,17,06,13,17.40
2012,08,17,06,14,17.30
2012,08,17,06,15,17.30
2012,08,17,06,16,17.30
2012,08,17,06,17,17.30
2012,08,17,06,18,17.20
2012,08,17,06,19,17.20
2012,08,17,06,20,17.20
2012,08,17,06,21,17.20
2012,08,17,06,22,17.20
2012,08,17,06,23,17.10
2012,08,17,06,24,17.10
2012,08,17,06,25,17.10
2012,08,17,06,26,17.10
2012,08,17,06,27,17.10
2012,08,17,06,28,17.10
2012,08,17,06,29,17.10
2012,08,17,06,30,17.10
2012,08,17,06,31,17.10
2012,08,17,06,32,17.00
2012,08,17,06,33,17.00
2012,08,17,06,34,17.10
2012,08,17,06,35,17.10
2012,08,17,06,36,17.10
2012,08,17,06,37,17.10
2012,08,17,06,38,17.10
2012,08,17,06,39,17.10
2012,08,17,06,40,17.10
2012,08,17,06,41,17.10
2012,08,17,06,42,17.10
2012,08,17,06,43,17.10
2012,08,17,06,44,17.10
2012,08,17,06,45,17.10
2012,08,17,06,46,17.10
2012,08,17,06,47,17.10
2012,08,17,06,48,17.10
2012,08,17,06,49,17.10
2012,08,17,06,50,17.10
2012,08,17,06,51,17.10
2012,08,17,06,52,17.20
2012,08,17,06,53,17.20
2012,08,17,06,54,17.20
2012,08,17,06,55,17.20
2012,08,17,06,56,17.20
2012,08,17,06,57,17.30
2012,08,17,06,58,17.30
2012,08,17,06,59,17.30
2012,08,17,07,00,17.30
2012,08,17,07,01,17.30
2012,08,17,07,02,17.30
2012,08,17,07,03,17.40
2012,08,17,07,04,17.40
2012,08,17,07,05,17.40
2012,08,17,07,06,17.40
2012,08,17,07,07,17.50
2012,08,17,07,08,17.50
2012,08,17,07,09,17.50
2012,08,17,07,10,17.60
2012,08,17,07,11,17.60
2012,08,17,07,12,17.60
2012,08,17,07,13,17.60
2012,08,17,07,14,17.70
2012,08,17,07,15,17.70
2012,08,17,07,16,17.70
2012,08,17,07,17,17.70
2012,08,17,07,18,17.70
2012,08,17,07,19,17.70
2012,08,17,07,20,17.70
2012,08,17,07,21,17.70
2012,08,17,07,22,17.70
2012,08,17,07,23,17.70
2012,08,17,07,24,17.70
2012,08,17,07,25,17.70
2012,08,17,07,26,17.70
2012,08,17,07,27,17.70
2012,08,17,07,28,17.70
2012,08,17,07,29,17.80
2012,08,17,07,30,17.80
2012,08,17,07,31,17.80
2012,08,17,07,32,17.80
2012,08,17,07,33,17.80
2012,08,17,07,34,17.80
2012,08,17,07,35,17.90
2012,08,17,07,36,17.90
2012,08,17,07,37,17.90
2012,08,17,07,38,17.90
2012,08,17,07,39,18.00
2012,08,17,07,40,18.00
2012,08,17,07,41,18.10
2012,08,17,07,42,18.10
2012,08,17,07,43,18.10
2012,08,17,07,44,18.20
2012,08,17,07,45,18.20
2012,08,17,07,46,18.20
2012,08,17,07,47,18.30
2012,08,17,07,48,18.30
2012,08,17,07,49,18.30
2012,08,17,07,50,18.40
2012,08,17,07,51,18.40
2012,08,17,07,52,18.40
2012,08,17,07,53,18.50
2012,08,17,07,54,18.50
2012,08,17,07,55,18.60
2012,08,17,07,56,18.60
2012,08,17,07,57,18.70
2012,08,17,07,58,18.70
2012,08,17,07,59,18.80
2012,08,17,08,00,18.80
2012,08,17,08,01,18.90
2012,08,17,08,02,18.90
2012,08,17,08,03,19.00
2012,08,17,08,04,19.10
2012,08,17,08,05,19.10
2012,08,17,08,06,19.20
2012,08,17,08,07,19.30
2012,08,17,08,08,19.40
2012,08,17,08,09,19.50
2012,08,17,08,10,19.70
2012,08,17,08,11,19.80
2012,08,17,08,12,19.90
2012,08,17,08,13,20.00
2012,08,17,08,14,20.10
2012,08,17,08,15,20.20
2012,08,17,08,16,20.30
2012,08,17,08,17,20.40
2012,08,17,08,18,20.50
2012,08,17,08,19,20.60
2012,08,17,08,20,20.80
2012,08,17,08,21,20.80
2012,08,17,08,22,20.90
2012,08,17,08,23,21.00
2012,08,17,08,24,21.10
2012,08,17,08,25,21.20
2012,08,17,08,26,21.30
2012,08,17,08,27,21.40
2012,08,17,08,28,21.50
2012,08,17,08,29,21.50
2012,08,17,08,30,21.60
2012,08,17,08,31,21.70
2012,08,17,08,32,21.80
2012,08,17,08,33,21.80
2012,08,17,08,34,21.90
2012,08,17,08,35,22.00
2012,08,17,08,36,22.00
2012,08,17,08,37,22.10
2012,08,17,08,38,22.20
2012,08,17,08,39,22.30
2012,08,17,08,40,22.40
2012,08,17,08,41,22.40
2012,08,17,08,42,22.50
2012,08,17,08,43,22.60
2012,08,17,08,44,22.60
2012,08,17,08,45,22.70
2012,08,17,08,46,22.80
2012,08,17,08,47,22.80
2012,08,17,08,48,22.90
2012,08,17,08,49,22.90
2012,08,17,08,50,23.00
2012,08,17,08,51,23.00
2012,08,17,08,52,23.00
2012,08,17,08,53,23.00
2012,08,17,08,54,23.10
2012,08,17,08,55,23.10
2012,08,17,08,56,23.10
2012,08,17,08,57,23.20
2012,08,17,08,58,23.20
2012,08,17,08,59,23.20
2012,08,17,09,00,23.20
2012,08,17,09,01,23.30
2012,08,17,09,02,23.30
2012,08,17,09,03,23.30
2012,08,17,09,04,23.30
2012,08,17,09,05,23.30
2012,08,17,09,06,23.20
2012,08,17,09,07,23.20
2012,08,17,09,08,23.20
2012,08,17,09,09,23.20
2012,08,17,09,10,23.10
2012,08,17,09,11,23.10
2012,08,17,09,12,23.10
2012,08,17,09,13,23.10
2012,08,17,09,14,23.10
2012,08,17,09,15,23.10
2012,08,17,09,16,23.10
2012,08,17,09,17,23.20
2012,08,17,09,18,23.20
2012,08,17,09,19,23.20
2012,08,17,09,20,23.20
2012,08,17,09,21,23.30
2012,08,17,09,22,23.30
2012,08,17,09,23,23.30
2012,08,17,09,24,23.40
2012,08,17,09,25,23.40
2012,08,17,09,26,23.40
2012,08,17,09,27,23.50
2012,08,17,09,28,23.50
2012,08,17,09,29,23.60
2012,08,17,09,30,23.60
2012,08,17,09,31,23.60
2012,08,17,09,32,23.70
2012,08,17,09,33,23.70
2012,08,17,09,34,23.80
2012,08,17,09,35,23.80
2012,08,17,09,36,23.80
2012,08,17,09,37,23.90
2012,08,17,09,38,23.90
2012,08,17,09,39,23.90
2012,08,17,09,40,23.90
2012,08,17,09,41,23.90
2012,08,17,09,42,23.90
2012,08,17,09,43,23.90
2012,08,17,09,44,23.90
2012,08,17,09,45,23.90
2012,08,17,09,46,23.90
2012,08,17,09,47,23.90
2012,08,17,09,48,24.00
2012,08,17,09,49,24.00
2012,08,17,09,50,24.10
2012,08,17,09,51,24.10
2012,08,17,09,52,24.10
2012,08,17,09,53,24.10
2012,08,17,09,54,24.20
2012,08,17,09,55,24.30
2012,08,17,09,56,24.30
2012,08,17,09,57,24.40
2012,08,17,09,58,24.40
2012,08,17,09,59,24.50
2012,08,17,10,00,24.60
2012,08,17,10,01,24.50
2012,08,17,10,02,24.50
2012,08,17,10,03,24.50
2012,08,17,10,04,24.50
2012,08,17,10,05,24.60
2012,08,17,10,06,24.60
2012,08,17,10,07,24.70
2012,08,17,10,08,24.70
2012,08,17,10,09,24.80
2012,08,17,10,10,24.80
2012,08,17,10,11,24.90
2012,08,17,10,12,25.00
2012,08,17,10,13,25.00
2012,08,17,10,14,25.10
2012,08,17,10,15,25.10
2012,08,17,10,16,25.20
2012,08,17,10,17,25.20
2012,08,17,10,18,25.30
2012,08,17,10,19,25.30
2012,08,17,10,20,25.30
2012,08,17,10,21,25.30
2012,08,17,10,22,25.30
2012,08,17,10,23,25.30
2012,08,17,10,24,25.20
2012,08,17,10,25,25.30
2012,08,17,10,26,25.30
2012,08,17,10,27,25.30
2012,08,17,10,28,25.40
2012,08,17,10,29,25.40
2012,08,17,10,30,25.50
2012,08,17,10,31,25.50
2012,08,17,10,32,25.60
2012,08,17,10,33,25.60
2012,08,17,10,34,25.50
2012,08,17,10,35,25.50
2012,08,17,10,36,25.40
2012,08,17,10,37,25.30
2012,08,17,10,38,25.30
2012,08,17,10,39,25.30
2012,08,17,10,40,25.30
2012,08,17,10,41,25.30
2012,08,17,10,42,25.40
2012,08,17,10,43,25.30
2012,08,17,10,44,25.30
2012,08,17,10,45,25.30
2012,08,17,10,46,25.40
2012,08,17,10,47,25.40
2012,08,17,10,48,25.50
2012,08,17,10,49,25.60
2012,08,17,10,50,25.60
2012,08,17,10,51,25.60
2012,08,17,10,52,25.70
2012,08,17,10,53,25.70
2012,08,17,10,54,25.70
2012,08,17,10,55,25.70
2012,08,17,10,56,25.70
2012,08,17,10,57,25.70
2012,08,17,10,58,25.70
2012,08,17,10,59,25.80
2012,08,17,11,00,25.80
2012,08,17,11,01,25.80
2012,08,17,11,02,25.90
2012,08,17,11,03,25.90
2012,08,17,11,04,25.90
2012,08,17,11,05,25.90
2012,08,17,11,06,25.90
2012,08,17,11,07,26.00
2012,08,17,11,08,26.10
2012,08,17,11,09,26.10
2012,08,17,11,10,26.20
2012,08,17,11,11,26.20
2012,08,17,11,12,26.20
2012,08,17,11,13,26.30
2012,08,17,11,14,26.30
2012,08,17,11,15,26.30
2012,08,17,11,16,26.30
2012,08,17,11,17,26.20
2012,08,17,11,18,26.20
2012,08,17,11,19,26.20
2012,08,17,11,20,26.20
2012,08,17,11,21,26.10
2012,08,17,11,22,26.10
2012,08,17,11,23,26.10
2012,08,17,11,24,26.10
2012,08,17,11,25,26.10
2012,08,17,11,26,26.10
2012,08,17,11,27,26.10
2012,08,17,11,28,26.00
2012,08,17,11,29,26.00
2012,08,17,11,30,25.90
2012,08,17,11,31,25.90
2012,08,17,11,32,26.00
2012,08,17,11,33,26.00
2012,08,17,11,34,26.00
2012,08,17,11,35,26.00
2012,08,17,11,36,26.10
2012,08,17,11,37,26.10
2012,08,17,11,38,26.10
2012,08,17,11,39,26.00
2012,08,17,11,40,26.10
2012,08,17,11,41,26.00
2012,08,17,11,42,26.00
2012,08,17,11,43,26.00
2012,08,17,11,44,26.00
2012,08,17,11,45,26.00
2012,08,17,11,46,26.00
2012,08,17,11,47,26.10
2012,08,17,11,48,26.10
2012,08,17,11,49,26.20
2012,08,17,11,50,26.20
2012,08,17,11,51,26.30
2012,08,17,11,52,26.30
2012,08,17,11,53,26.40
2012,08,17,11,54,26.40
2012,08,17,11,55,26.40
2012,08,17,11,56,26.50
2012,08,17,11,57,26.50
2012,08,17,11,58,26.60
2012,08,17,11,59,26.60
2012,08,17,12,00,26.60
2012,08,17,12,01,26.70
2012,08,17,12,02,26.80
2012,08,17,12,03,26.80
2012,08,17,12,04,26.80
2012,08,17,12,05,26.80
2012,08,17,12,06,26.90
2012,08,17,12,07,26.80
2012,08,17,12,08,26.80
2012,08,17,12,09,26.90
2012,08,17,12,10,26.90
2012,08,17,12,11,26.90
2012,08,17,12,12,26.90
2012,08,17,12,13,26.90
2012,08,17,12,14,26.90
2012,08,17,12,15,26.90
2012,08,17,12,16,26.90
2012,08,17,12,17,26.90
2012,08,17,12,18,26.90
2012,08,17,12,19,26.90
2012,08,17,12,20,26.80
2012,08,17,12,21,26.90
2012,08,17,12,22,26.90
2012,08,17,12,23,26.90
2012,08,17,12,24,26.90
2012,08,17,12,25,27.00
2012,08,17,12,26,27.00
2012,08,17,12,27,27.10
2012,08,17,12,28,27.10
2012,08,17,12,29,27.10
2012,08,17,12,30,27.10
2012,08,17,12,31,27.10
2012,08,17,12,32,27.10
2012,08,17,12,33,27.10
2012,08,17,12,34,27.10
2012,08,17,12,35,27.10
2012,08,17,12,36,27.00
2012,08,17,12,37,27.00
2012,08,17,12,38,26.90
2012,08,17,12,39,26.90
2012,08,17,12,40,26.90
2012,08,17,12,41,26.90
2012,08,17,12,42,27.00
2012,08,17,12,43,27.00
2012,08,17,12,44,27.10
2012,08,17,12,45,27.20
2012,08,17,12,46,27.20
2012,08,17,12,47,27.20
2012,08,17,12,48,27.10
2012,08,17,12,49,27.10
2012,08,17,12,50,27.10
2012,08,17,12,51,27.20
2012,08,17,12,52,27.20
2012,08,17,12,53,27.20
2012,08,17,12,54,27.20
2012,08,17,12,55,27.20
2012,08,17,12,56,27.20
2012,08,17,12,57,27.20
2012,08,17,12,58,27.20
2012,08,17,12,59,27.20
2012,08,17,13,00,27.10
2012,08,17,13,01,27.10
2012,08,17,13,02,27.00
2012,08,17,13,03,26.90
2012,08,17,13,04,27.00
2012,08,17,13,05,27.00
2012,08,17,13,06,27.00
2012,08,17,13,07,27.00
2012,08,17,13,08,27.00
2012,08,17,13,09,27.10
2012,08,17,13,10,27.00
2012,08,17,13,11,27.00
2012,08,17,13,12,27.00
2012,08,17,13,13,27.00
2012,08,17,13,14,27.00
2012,08,17,13,15,26.90
2012,08,17,13,16,26.90
2012,08,17,13,17,26.90
2012,08,17,13,18,26.90
2012,08,17,13,19,26.90
2012,08,17,13,20,26.90
2012,08,17,13,21,26.90
2012,08,17,13,22,26.90
2012,08,17,13,23,26.90
2012,08,17,13,24,27.00
2012,08,17,13,25,27.00
2012,08,17,13,26,27.10
2012,08,17,13,27,27.10
2012,08,17,13,28,27.10
2012,08,17,13,29,27.10
2012,08,17,13,30,27.00
2012,08,17,13,31,26.90
2012,08,17,13,32,26.80
2012,08,17,13,33,26.80
2012,08,17,13,34,26.70
2012,08,17,13,35,26.70
2012,08,17,13,36,26.60
2012,08,17,13,37,26.60
2012,08,17,13,38,26.60
2012,08,17,13,39,26.70
2012,08,17,13,40,26.70
2012,08,17,13,41,26.60
2012,08,17,13,42,26.60
2012,08,17,13,43,26.60
2012,08,17,13,44,26.50
2012,08,17,13,45,26.50
2012,08,17,13,46,26.60
2012,08,17,13,47,26.60
2012,08,17,13,48,26.60
2012,08,17,13,49,26.60
2012,08,17,13,50,26.50
2012,08,17,13,51,26.50
2012,08,17,13,52,26.50
2012,08,17,13,53,26.50
2012,08,17,13,54,26.50
2012,08,17,13,55,26.40
2012,08,17,13,56,26.40
2012,08,17,13,57,26.40
2012,08,17,13,58,26.30
2012,08,17,13,59,26.30
2012,08,17,14,00,26.30
2012,08,17,14,01,26.20
2012,08,17,14,02,26.10
2012,08,17,14,03,26.10
2012,08,17,14,04,26.00
2012,08,17,14,05,26.00
2012,08,17,14,06,26.10
2012,08,17,14,07,26.10
2012,08,17,14,08,26.20
2012,08,17,14,09,26.20
2012,08,17,14,10,26.30
2012,08,17,14,11,26.40
2012,08,17,14,12,26.40
2012,08,17,14,13,26.40
2012,08,17,14,14,26.40
2012,08,17,14,15,26.40
2012,08,17,14,16,26.40
2012,08,17,14,17,26.30
2012,08,17,14,18,26.30
2012,08,17,14,19,26.30
2012,08,17,14,20,26.20
2012,08,17,14,21,26.20
2012,08,17,14,22,26.20
2012,08,17,14,23,26.20
2012,08,17,14,24,26.20
2012,08,17,14,25,26.20
2012,08,17,14,26,26.20
2012,08,17,14,27,26.10
2012,08,17,14,28,26.10
2012,08,17,14,29,26.10
2012,08,17,14,30,26.10
2012,08,17,14,31,26.10
2012,08,17,14,32,26.10
2012,08,17,14,33,26.10
2012,08,17,14,34,26.10
2012,08,17,14,35,26.10
2012,08,17,14,36,26.10
2012,08,17,14,37,26.00
2012,08,17,14,38,26.00
2012,08,17,14,39,25.90
2012,08,17,14,40,25.90
2012,08,17,14,41,25.70
2012,08,17,14,42,25.70
2012,08,17,14,43,25.70
2012,08,17,14,44,25.70
2012,08,17,14,45,25.70
2012,08,17,14,46,25.70
2012,08,17,14,47,25.70
2012,08,17,14,48,25.70
2012,08,17,14,49,25.70
2012,08,17,14,50,25.70
2012,08,17,14,51,25.70
2012,08,17,14,52,25.70
2012,08,17,14,53,25.80
2012,08,17,14,54,25.80
2012,08,17,14,55,25.90
2012,08,17,14,56,25.90
2012,08,17,14,57,26.00
2012,08,17,14,58,26.10
2012,08,17,14,59,26.10
2012,08,17,15,00,26.20
2012,08,17,15,01,26.20
2012,08,17,15,02,26.20
2012,08,17,15,03,26.30
2012,08,17,15,04,26.30
2012,08,17,15,05,26.30
2012,08,17,15,06,26.30
2012,08,17,15,07,26.30
2012,08,17,15,08,26.40
2012,08,17,15,09,26.40
2012,08,17,15,10,26.40
2012,08,17,15,11,26.40
2012,08,17,15,12,26.40
2012,08,17,15,13,26.40
2012,08,17,15,14,26.40
2012,08,17,15,15,26.40
2012,08,17,15,16,26.40
2012,08,17,15,17,26.40
2012,08,17,15,18,26.40
2012,08,17,15,19,26.40
2012,08,17,15,20,26.40
2012,08,17,15,21,26.30
2012,08,17,15,22,26.30
2012,08,17,15,23,26.30
2012,08,17,15,24,26.30
2012,08,17,15,25,26.30
2012,08,17,15,26,26.40
2012,08,17,15,27,26.40
2012,08,17,15,28,26.50
2012,08,17,15,29,26.50
2012,08,17,15,30,26.60
2012,08,17,15,31,26.60
2012,08,17,15,32,26.70
2012,08,17,15,33,26.70
2012,08,17,15,34,26.80
2012,08,17,15,35,26.80
2012,08,17,15,36,26.80
2012,08,17,15,37,26.80
2012,08,17,15,38,26.80
2012,08,17,15,39,26.80
2012,08,17,15,40,26.80
2012,08,17,15,41,26.80
2012,08,17,15,42,26.90
2012,08,17,15,43,26.90
2012,08,17,15,44,27.00
2012,08,17,15,45,27.10
2012,08,17,15,46,27.10
2012,08,17,15,47,27.10
2012,08,17,15,48,27.10
2012,08,17,15,49,27.20
2012,08,17,15,50,27.20
2012,08,17,15,51,27.20
2012,08,17,15,52,27.30
2012,08,17,15,53,27.30
2012,08,17,15,54,27.30
2012,08,17,15,55,27.40
2012,08,17,15,56,27.50
2012,08,17,15,57,27.50
2012,08,17,15,58,27.60
2012,08,17,15,59,27.70
2012,08,17,16,00,27.70
2012,08,17,16,01,27.70
2012,08,17,16,02,27.60
2012,08,17,16,03,27.60
2012,08,17,16,04,27.60
2012,08,17,16,05,27.60
2012,08,17,16,06,27.60
2012,08,17,16,07,27.50
2012,08,17,16,08,27.40
2012,08,17,16,09,27.30
2012,08,17,16,10,27.30
2012,08,17,16,11,27.30
2012,08,17,16,12,27.30
2012,08,17,16,13,27.20
2012,08,17,16,14,27.20
2012,08,17,16,15,27.20
2012,08,17,16,16,27.20
2012,08,17,16,17,27.30
2012,08,17,16,18,27.30
2012,08,17,16,19,27.30
2012,08,17,16,20,27.40
2012,08,17,16,21,27.40
2012,08,17,16,22,27.40
2012,08,17,16,23,27.40
2012,08,17,16,24,27.40
2012,08,17,16,25,27.40
2012,08,17,16,26,27.40
2012,08,17,16,27,27.40
2012,08,17,16,28,27.40
2012,08,17,16,29,27.40
2012,08,17,16,30,27.40
2012,08,17,16,31,27.40
2012,08,17,16,32,27.40
2012,08,17,16,33,27.40
2012,08,17,16,34,27.40
2012,08,17,16,35,27.40
2012,08,17,16,36,27.40
2012,08,17,16,37,27.40
2012,08,17,16,38,27.50
2012,08,17,16,39,27.50
2012,08,17,16,40,27.60
2012,08,17,16,41,27.60
2012,08,17,16,42,27.70
2012,08,17,16,43,27.70
2012,08,17,16,44,27.70
2012,08,17,16,45,27.80
2012,08,17,16,46,27.70
2012,08,17,16,47,27.70
2012,08,17,16,48,27.60
2012,08,17,16,49,27.60
2012,08,17,16,50,27.60
2012,08,17,16,51,27.60
2012,08,17,16,52,27.60
2012,08,17,16,53,27.50
2012,08,17,16,54,27.50
2012,08,17,16,55,27.50
2012,08,17,16,56,27.50
2012,08,17,16,57,27.50
2012,08,17,16,58,27.50
2012,08,17,16,59,27.50
2012,08,17,17,00,27.50
2012,08,17,17,01,27.50
2012,08,17,17,02,27.40
2012,08,17,17,03,27.40
2012,08,17,17,04,27.40
2012,08,17,17,05,27.40
2012,08,17,17,06,27.40
2012,08,17,17,07,27.40
2012,08,17,17,08,27.40
2012,08,17,17,09,27.40
2012,08,17,17,10,27.40
2012,08,17,17,11,27.40
2012,08,17,17,12,27.40
2012,08,17,17,13,27.40
2012,08,17,17,14,27.40
2012,08,17,17,15,27.40
2012,08,17,17,16,27.40
2012,08,17,17,17,27.40
2012,08,17,17,18,27.40
2012,08,17,17,19,27.40